sat.trackr.live / text

‹ back to catalog

FLOCK 4BE-22

NORAD 60494 · 2024-149AC

PAYLOAD ACTIVE UNKNOWN

§ Identity

Operator
Country
US
Launch date
2024-08-16
Launch site
AFWTR
Launch vehicle
Mass (kg)
RCS (m²)

Purposes: earth_obs

External: N2YO · Heavens-Above · Gunter

§ Orbital elements

Epoch: 2026-09-19T04:38:09.662496Z

Period
93.23 min
Inclination
97.3677°
Eccentricity
0.0002149
Mean motion
15.44498632 rev/d
Perigee alt
431.4 km
Apogee alt
434.3 km
Semi-major
6,811.0 km
B*
6.0145e-4
RAAN
346.8171°
Arg perigee
287.9968°
Mean anomaly
72.1047°
Rev number
11,679

§ Raw data

FLOCK 4BE-221 60494U 24149AC  26262.19316739  .00027853  00000+0  60145-3 0  99932 60494  97.3677 346.8171 0002149 287.9968  72.1047 15.44498632116790

JSON: /api/v1/satellites/60494 · /tle

For live sub-satellite position, see the globe view (requires WebGL).

§ Visibility from observer

Set your observer location to see the next 7 days of passes ≥ 10°. The values pass through the URL so the page stays shareable.

No JS? Fill the form by hand. The geolocation button needs JavaScript.